Regional Weather Roundup
Issued by NWS Mobile, AL

Home | Current Version | Previous Version | Text Only | Print | Product List | Glossary On
Versions: 1 2 3 4 5 6 7 8 9 10 11 12 13 14 15 16 17 18 19 20 21 22 23 24 25 26 27 28
000
ASUS44 KMOB 170312
RWRMOB
REGIONAL WEATHER ROUNDUP
NATIONAL WEATHER SERVICE MOBILE AL
900 PM CST SAT DEC 16 2017

NOTE: "FAIR" INDICATES FEW OR NO CLOUDS BELOW 12,000 FEET WITH NO
      SIGNIFICANT WEATHER AND/OR OBSTRUCTIONS TO VISIBILITY.

  * THESE STATIONS ARE PART OF THE UNIVERSITY OF SOUTH ALABAMA
    MESONET AND ARE NOT UNDER NWS OR FAA QUALITY CONTROL.

ALZ061>064-170400-
COASTAL ALABAMA

CITY           SKY/WX    TMP DP  RH WIND       PRES   REMARKS
MOBILE REG APT PTCLDY    52  37  56 E7        30.23S
BROOKLEY FIELD PTCLDY    54  45  71 E5        30.25F
USA CAMPUS*    NOT AVBL
DOG RIVER*     NOT AVBL


CITY           SKY/WX    TMP DP  RH WIND       PRES   REMARKS
GULF SHORES    CLOUDY    52  42  68 E5        30.23F

$$

ALZ051>060-170400-
INTERIOR SOUTHWEST AND SOUTH CENTRAL ALABAMA

CITY           SKY/WX    TMP DP  RH WIND       PRES   REMARKS
GREENVILLE     CLOUDY    42  33  70 CALM      30.26R
EVERGREEN      CLOUDY    41  37  86 CALM      30.27R
ATMORE*          N/A    N/A N/A N/A SE2         N/A
ANDALUSIA/OPP  PTCLDY    44  37  76 CALM      30.26S
ANDALUSIA*       N/A     43  37  81 E3        30.25S
FLORALA APT    PTCLDY    44  38  79 CALM      30.29R
FLORALA*         N/A     43  41  93 CALM      31.03R

$$

FLZ001>006-170400-
WESTERN FLORIDA PANHANDLE

CITY           SKY/WX    TMP DP  RH WIND       PRES   REMARKS
PENSACOLA      CLOUDY    56  40  55 CALM      30.25R
NAS PENSACOLA  CLOUDY    57  40  52 NE6       30.24S
MILTON         CLOUDY    49  44  83 CALM      30.26R
WHTNG S FIELD  CLOUDY    53  43  68 NE5       30.26R


CITY           SKY/WX    TMP DP  RH WIND       PRES   REMARKS
JAY*             N/A     50  39  66 E3        30.26S
DUKE FIELD     PTCLDY    43  37  79 CALM      30.25S
CRESTVIEW      PTCLDY    43  39  86 CALM      30.28R
VALPARAISO     MOCLDY    48  40  73 CALM      30.26R
DESTIN         CLEAR     53  43  68 CALM      30.26R

$$

MSZ076-079-170400-
INTERIOR SOUTHEAST MISSISSIPPI

CITY           SKY/WX    TMP DP  RH WIND       PRES   REMARKS
LEAKESVILLE*     N/A     46  39  76 CALM      30.24R
AGRICOLA*        N/A     50  39  66 CALM      30.21S

$$

MARINE OBSERVATIONS

STATION/POSITION TIME  TEMP    WIND        PRES    WAVE
                       AIR SEA DIR/SP/G            HT/PER
                 (UTC) (F)     (DEG/KT/KT) (MB)    (FT/S)
PASCAGOULA       0236   54     100/  6/  8 1023.0R
PETIT BOIS ISLND 0236   55      80/ 12/ 15 1023.6F
KATRINA CUT      0230   54      80/ 13     1023.4F
CEDAR POINT      0230   54      80/  8     1023.0F
E DAUPHIN ISLAND 0200   57      70/ 12/ 13 1023.2F
MIDDLE BAY LIGHT 0230   54      80/  9     1023.7S
USCG MOBILE BAY  0236   54 55  100/  5/  7 1023.9F
STATE DOCKS      0236   53 56              1023.7F
MEAHER PARK      0230   53      60/  1     1024.0R
WEEKS BAY        0145   53                 1024.0S
FORT MORGAN      0236   55      90/ 11/ 12   N/A
12 S ORANGE BCH  NOT AVBL
PENSACOLA BAY    0236   56 54              1024.5R
64 S DAUPHIN ISL 0300   68     110/ 17/ 19 1022.8
67 S FORT MORGAN 0230   66                 1022.4S

$$

SELECTED LOCATIONS ACROSS THE REGION

CITY           SKY/WX    TMP DP  RH WIND       PRES   REMARKS
NEW ORLEANS    CLOUDY    57  53  86 E10       30.17F
GULFPORT       CLOUDY    51  40  65 CALM      30.21S
PASCAGOULA AP  PTCLDY    52  39  61 E3        30.22S
PASCAGOULA*      N/A     54  43  66 E2          N/A
HATTIESBURG    CLOUDY    48  42  80 CALM      30.23F
LAUREL         MOCLDY    43  38  82 CALM      30.23S
MERIDIAN       CLOUDY    39  34  82 CALM      30.24R
JACKSON        MOCLDY    48  32  53 SE6       30.19F
MONTGOMERY     CLEAR     40  29  64 CALM      30.28R
TROY           CLOUDY    39  35  86 CALM      30.28R
ASHFORD*         N/A     43  37  81 E3        30.25S
DOTHAN         CLOUDY    43  36  76 CALM      30.30S
PANAMA CITY    CLEAR     45  41  86 CALM      30.26S

$$





USA.gov is the U.S. government's official web portal to all federal, state and local government web resources and services.